VOLGA R/B

Last updated on Nov. 29, 2019, 12:02 a.m. UTC

1 44798U 19079B   19330.21844354 -.01109826  00000-0 -44412-1 0  9990
2 44798  97.9005  29.9080 0352394 319.9069 131.1178 14.84802431    46

Satellite is not in orbit.